This is the latest recevied weather packets stored in our database for station/object K7AZM. If no packets are shown the sender has not sent any weather packets the latest 10 day(s).
| Time | Temp. | Humidity | Pressure | Rain* | Wind** | Luminosity | Snow |
|---|---|---|---|---|---|---|---|
| 1777764045 | 33.89° C | 14% | 1011.5 hPa | 0 mm | - | - | - |
| 1777759224 | 32.22° C | 15% | 1012.2 hPa | 0 mm | - | - | - |
| 1777758623 | 32.22° C | 15% | 1012.4 hPa | 0 mm | - | - | - |
| 1777758323 | 32.78° C | 14% | 1012.7 hPa | 0 mm | - | - | - |
| 1777756825 | 32.78° C | 14% | 1013.2 hPa | 0 mm | - | - | - |
| 1777755623 | 32.78° C | 13% | 1013.6 hPa | 0 mm | - | - | - |
| 1777754725 | 32.78° C | 14% | 1013.9 hPa | 0 mm | - | - | - |
| 1777754423 | 32.78° C | 10% | 1013.9 hPa | 0 mm | - | - | - |
| 1777754144 | 33.33° C | 12% | 1014.1 hPa | 0 mm | - | - | - |
| 1777752923 | 32.78° C | 14% | 1014.3 hPa | 0 mm | - | - | - |
| 1777751725 | 32.22° C | 16% | 1014.3 hPa | 0 mm | - | - | - |
| 1777751423 | 31.67° C | 17% | 1014.3 hPa | 0 mm | - | - | - |
| 1777751144 | 32.78° C | 17% | 1014.4 hPa | 0 mm | - | - | - |
| 1777750823 | 32.78° C | 18% | 1014.5 hPa | 0 mm | - | - | - |
| 1777749623 | 31.67° C | 19% | 1014.7 hPa | 0 mm | - | - | - |
| 1777749323 | 31.67° C | 19% | 1014.8 hPa | 0 mm | - | - | - |
| 1777747223 | 31.11° C | 20% | 1015.2 hPa | 0 mm | - | - | - |
| 1777746924 | 31.11° C | 19% | 1015.3 hPa | 0 mm | - | - | - |
| 1777744824 | 30° C | 22% | 1015.7 hPa | 0 mm | - | - | - |
| 1777742444 | 29.44° C | 24% | 1016.1 hPa | 0 mm | - | - | - |
| 1777741224 | 29.44° C | 24% | 1016.2 hPa | 0 mm | - | - | - |
| 1777737923 | 28.33° C | 21% | 1016 hPa | 0 mm | - | - | - |
| 1777737323 | 28.33° C | 19% | 1016 hPa | 0 mm | - | - | - |
| 1777733723 | 25.56° C | 21% | 1015.6 hPa | 0 mm | - | - | - |
| 1777733423 | 25.56° C | 21% | 1015.5 hPa | 0 mm | - | - | - |
* Rain latest hour (hover to see other rain measurements)
** Current wind speed in m/s (hover to see current wind gust speed)